Simultaneous Nadir Overpasses (SNOs) Predictions

Prediction of SNOs between AQUA and GOES-15 Satellite Orbit:

Table of predicted SNOs for the next 14.0 days since TLE Epoch: 10/1/2022
Index Date Time (AQUA) AQUA Lat,Lon GOES-15 Lat,Lon Distance(km) Time Diff (sec)
1 10/02/2022 10:00:19 -0.41,-124.92 0.28,-128.19 372.02 80
2 10/02/2022 22:21:34 -0.69,-130.07 -0.27,-128.12 221.46 80
3 10/04/2022 22:08:48 -0.03,-126.96 -0.26,-128.16 135.63 80
4 10/05/2022 10:29:56 1.04,-132.10 0.24,-128.25 436.80 80
5 10/06/2022 21:56:02 0.66,-123.86 -0.26,-128.19 492.95 80
6 10/07/2022 10:17:09 0.41,-128.98 0.24,-128.28 79.54 80
7 10/09/2022 10:04:22 -0.25,-125.87 0.24,-128.32 278.06 80
8 10/09/2022 22:25:37 -0.82,-131.02 -0.23,-128.24 316.19 80
9 10/11/2022 22:12:50 -0.13,-127.91 -0.23,-128.27 41.34 80
10 10/13/2022 22:00:02 0.52,-124.80 -0.23,-128.30 398.40 80
11 10/14/2022 10:21:09 0.53,-129.92 0.21,-128.39 173.62 80
